Location: Central Coast
(33.3208°S, 151.2336°E)
Time: 13:46:23
(UTC+11:00)

Envisat - Pass Details

Date: 17 October 2017
Orbit: 764 x 766 km, 98.2° (Epoch: 20 October)

Event Time Altitude Azimuth Distance (km) Brightness Sun altitude
Rises 21:17:41 0° 166° (SSE) 3,266 6.5 -25.6°
Reaches altitude 10° 21:20:01 10° 163° (SSE) 2,332 5.7 -26.0°
Enters shadow 21:23:57 52° 145° (SE) 961 3.4 -26.7°
